Location: LDNL
(36.4545°S, 141.6685°E)
Time: 11:48:59
(UTC+10:00)

Explorer 7 - Pass Details

Date: 11 August 2022
Orbit: 482 x 668 km, 50.3° (Epoch: 26 September)

Event Time Altitude Azimuth Distance (km) Brightness Sun altitude
Rises 19:12:47 0° 297° (WNW) 3,008 12.0 -15.7°
Reaches altitude 10° 19:15:12 10° 292° (WNW) 2,093 11.0 -16.2°
Maximum altitude 19:19:57 54° 214° (SW) 805 7.7 -17.2°
Enters shadow 19:22:52 22° 144° (SE) 1,425 8.5 -17.8°
Drops below altitude 10° 19:24:35 10° 137° (SE) 2,038 - -18.1°
Sets 19:26:55 0° 131° (SE) 2,923 - -18.6°
